Showing default

GALAXY 15, 28884

Orbit data source: Space-Track

GALAXY 15, 28884 is a payload satellite owned by Panamsat (US) in GEO that was launched on Thu, 13 Oct 2005 UTC via an ARIANE 5GS launch vehicle from the French Guiana (FRGUI). Payload-class satellites include a variety of spacecraft equipped with specific instruments for various scientific and technological missions. These include communications satellites like Starlink; space stations such as the ISS; scientific satellites like the Hubble; Earth observation satellites from companies like Planet Labs, Umbra, and HawkEye 360; GPS; miniature CubeSats for education and research; and military/defense satellites.

Loading next visibility...
Identifier
28884, 2005-041A
Orbit
GEO
Last TLE update
10 hours ago
Origin
Manufacturer
OSC
Mission
Non-operational Commercial Communications
Bus & Motor
OSC STAR 2, IHI LAE
Mass
2,033 kg wet, 885 kg dry
Launch date (UTC)
2005-10-13 (20 years ago)
Launch vehicle
ARIANE 5GS
Launch site
French Guiana (FRGUI)
Object type
Payload
Rocket body
Debris
Shape & HBR
Box + 2 Pan, 30 m
Radar Cross Section
28.709 m², Large (>1 m²)

Expand to show TLE details & history

TLE from 10 hours ago
0 GALAXY 15
1 28884U 05041A   25128.86887369 -.00000120  00000-0  00000-0 0  9997
2 28884   2.4849  81.6111 0012638 129.8799 261.4272  0.98939935 71447
Epoch: 2025-05-08T20:51Z
Definitive object data (Epoch: 2025-05-08T20:51:10.686Z)
Latitude
1.2779°
Longitude
-66.97888°
Altitude
36,171.708 km
Speed
3.06 km/s
True Right ascension
07h 30m 59s
True Declination
1° 16' 36"
Sunlit
Object was in daylight at TLE epoch
Visualization TLE readout
Latitude
-0.00387°
Longitude
81.87686°
Altitude
36,128.909 km
Speed
3.064 km/s
Apparent Right ascension
17h 43m 40s
Apparent Declination
-6° 00' 47"
Sunlit
Object is in daylight
Visualization observer readout
Local Sidereal Time
15:00:44
Azimuth
130.991° SE
Elevation
30.717°
Doppler factor
1
Orbital elements
Apogee altitude
36,218.968 km
Perigee altitude
36,111.435 km
Semi-major axis
42,543.338 km
Eccentricity
0.0012638
Inclination
2.4849°
RAAN
81.6111°
Arg. of periapsis
129.8799°
True anomaly
261.28403°
Mean anomaly
261.4272°
Eccentric anomaly
261.35561°
Mean motion
0.24734 °/min
BSTAR
Unknown
Orbital period
1455.48 mins
Loading historical data...
28884 neighbors
Loading maneuver chart data...
Loading SW <> Apogee altitude chart data...
Loading historical data...
Loading historical data...
Loading historical data...
Loading historical data...
Loading historical data...
Loading historical data...
Loading historical data...
Other satellites on launch #41 in the year 2005 (2005-10-13 UTC)

GALAXY 15 Visibility forecast

Observer location: undefined°, undefined°

Span
Click to sort rows by Start time (UTC) header in descending order
Start Az.
Max El. time (UTC)
Max El. Az.
Max El.
End time (UTC)
End Az.
1440 mins2025-05-09 06:51:50.505Z131.005° SE2025-05-10 01:42:50.505Z133.448° SE30.04°2025-05-10 06:51:50.505Z136.064° SSE
|